| time (UTC) | temp C | wind direction | speed KPH | gust KPH | rain 1hr cm | rain 24hr cm | rain mn cm | humidity % | barometer mb |
| 20260507140322 | 15 | 167 | 4.8 | 9.7 | 0.00 | 0.00 | 0.00 | 51 | 1014.6 |
| 20260507133316 | 15 | 128 | 4.8 | 8.0 | 0.00 | 0.00 | 0.00 | 52 | 1014.7 |
| 20260507130330 | 15 | 138 | 6.4 | 11.3 | 0.00 | 0.00 | 0.00 | 53 | 1014.8 |
| 20260507123325 | 16 | 249 | 6.4 | 12.9 | 0.00 | 0.00 | 0.00 | 57 | 1014.9 |
| 20260507120319 | 14 | 236 | 6.4 | 12.9 | 0.00 | 0.00 | 0.00 | 60 | 1015.1 |
| 20260507113334 | 13 | 169 | 6.4 | 9.7 | 0.00 | 0.00 | 0.00 | 60 | 1015.1 |
| 20260507110327 | 13 | 182 | 4.8 | 8.0 | 0.00 | 0.00 | 0.00 | 64 | 1015.4 |
| 20260507103337 | 11 | 173 | 8.0 | 12.9 | 0.00 | 0.00 | 0.00 | 72 | 1015.7 |
| 20260507100330 | 11 | 126 | 6.4 | 11.3 | 0.00 | 0.00 | 0.00 | 76 | 1015.8 |
| 20260507093325 | 10 | 130 | 4.8 | 9.7 | 0.00 | 0.00 | 0.00 | 80 | 1015.7 |
| 20260507090318 | 10 | 148 | 4.8 | 9.7 | 0.00 | 0.00 | 0.00 | 87 | 1015.7 |
| 20260507083313 | 8 | 140 | 4.8 | 9.7 | 0.00 | 0.00 | 0.00 | 91 | 1015.8 |
| 20260507080328 | 7 | 107 | 1.6 | 6.4 | 0.00 | 0.00 | 0.00 | 93 | 1015.7 |
| 20260507073322 | 7 | 32 | 0.0 | 3.2 | 0.00 | 0.00 | 0.00 | 94 | 1015.6 |
| 20260507070317 | 6 | 32 | 0.0 | 1.6 | 0.00 | 0.00 | 0.00 | 94 | 1015.4 |
| 20260507063348 | 5 | 32 | 0.0 | 0.0 | 0.00 | 0.00 | 0.00 | 95 | 1015.4 |
| 20260507060321 | 5 | 32 | 0.0 | 1.6 | 0.00 | 0.00 | 0.00 | 94 | 1015.4 |
| 20260507053335 | 2 | 40 | 0.0 | 1.6 | 0.00 | 0.00 | 0.00 | 95 | 1015.2 |
| 20260507050328 | 2 | 32 | 0.0 | 1.6 | 0.00 | 0.00 | 0.00 | 93 | 1015.2 |
| 20260507043323 | 3 | 32 | 0.0 | 3.2 | 0.00 | 0.00 | 0.00 | 93 | 1015.1 |
| 20260507040316 | 3 | 32 | 0.0 | 1.6 | 0.00 | 0.00 | 0.00 | 93 | 1015.1 |
| 20260507033350 | 3 | 32 | 0.0 | 1.6 | 0.00 | 0.00 | 0.00 | 93 | 1015.1 |
| 20260507030323 | 3 | 32 | 0.0 | 0.0 | 0.00 | 0.00 | 0.00 | 92 | 1015.1 |
| 20260507023319 | 4 | 32 | 0.0 | 1.6 | 0.00 | 0.00 | 0.00 | 92 | 1015.1 |
| 20260507020329 | 5 | 32 | 1.6 | 6.4 | 0.00 | 0.00 | 0.00 | 92 | 1015.1 |
| 20260507013322 | 5 | 32 | 0.0 | 6.4 | 0.00 | 0.00 | 0.00 | 92 | 1015.1 |
| 20260507010316 | 4 | 332 | 0.0 | 3.2 | 0.00 | 0.00 | 0.00 | 91 | 1015.1 |
| 20260507003331 | 3 | 332 | 0.0 | 1.6 | 0.00 | 0.00 | 0.00 | 90 | 1015.2 |
| 20260507000324 | 5 | 332 | 0.0 | 3.2 | 0.00 | 0.00 | 0.00 | 89 | 1015.2 |
| 20260506233340 | 5 | 332 | 1.6 | 6.4 | 0.00 | 0.00 | 0.00 | 90 | 1015.2 |
| 20260506230331 | 5 | 332 | 0.0 | 0.0 | 0.00 | 0.00 | 0.00 | 88 | 1015.2 |
| 20260506223327 | 6 | 332 | 0.0 | 3.2 | 0.00 | 0.00 | 0.00 | 88 | 1015.1 |
| 20260506220321 | 6 | 45 | 1.6 | 3.2 | 0.00 | 0.00 | 0.00 | 86 | 1015.0 |
| 20260506213330 | 6 | 50 | 0.0 | 6.4 | 0.00 | 0.00 | 0.00 | 84 | 1014.8 |
| 20260506210324 | 7 | 57 | 3.2 | 9.7 | 0.00 | 0.00 | 0.00 | 82 | 1014.6 |
| 20260506203319 | 7 | 41 | 3.2 | 4.8 | 0.00 | 0.00 | 0.00 | 79 | 1014.4 |
| 20260506200313 | 8 | 56 | 4.8 | 8.0 | 0.00 | 0.00 | 0.00 | 76 | 1014.1 |
| 20260506193328 | 9 | 57 | 3.2 | 8.0 | 0.00 | 0.00 | 0.00 | 74 | 1013.9 |
| 20260506190321 | 10 | 59 | 3.2 | 8.0 | 0.00 | 0.00 | 0.00 | 70 | 1013.7 |
| 20260506183315 | 11 | 48 | 4.8 | 11.3 | 0.00 | 0.00 | 0.00 | 65 | 1013.7 |
| 20260506180330 | 12 | 40 | 6.4 | 11.3 | 0.00 | 0.00 | 0.00 | 62 | 1013.4 |
| 20260506173325 | 12 | 36 | 8.0 | 14.5 | 0.00 | 0.00 | 0.00 | 59 | 1013.2 |
| 20260506170320 | 12 | 65 | 4.8 | 11.3 | 0.00 | 0.00 | 0.00 | 58 | 1013.1 |
| 20260506163330 | 12 | 42 | 6.4 | 17.7 | 0.00 | 0.00 | 0.00 | 59 | 1013.2 |
| 20260506160324 | 14 | 69 | 8.0 | 17.7 | 0.00 | 0.00 | 0.00 | 50 | 1013.0 |
| 20260506153319 | 13 | 22 | 6.4 | 12.9 | 0.00 | 0.00 | 0.00 | 55 | 1013.1 |
| 20260506150353 | 15 | 17 | 12.9 | 20.9 | 0.00 | 0.00 | 0.00 | 46 | 1013.1 |
| 20260506143325 | 13 | 25 | 9.7 | 16.1 | 0.00 | 0.00 | 0.00 | 52 | 1013.3 |